Flag for Germany Weather past 2 weeks in Zittau, Saxony, Germany

Now
54 °F

Overcast.


Feels Like: 52 °F
Forecast: 53 / 69 °F
Wind: 7 mph from Southeast

Location: Liberec

Current Time: May 3, 2015 at 9:59:50 PM

Latest Report: May 3, 2015 at 9:00 PM


Visibility: 7 mi

Pressure: 29.80 "Hg

Humidity: 71%

Dew point: 45 °F

Location of ZittauLocation

Historic Weather in Zittau — Graph

°F

Zittau temperature yesterday

Maximum temperature yesterday: 57 °F (at 5:00 PM)
Minimum temperature yesterday: 34 °F (at 6:00 AM)
Average temperature yesterday: 46 °F

Past Weeks' High & Low Weather Summary

 TemperatureHumidityPressure
High72 °F (Apr 27, 4:00 PM)99% (Apr 23, 7:00 AM)30.35 "Hg (Apr 23, 7:00 AM)
Low27 °F (Apr 19, 6:00 AM)20% (Apr 21, 5:00 PM)29.47 "Hg (Apr 27, 6:00 PM)
Average49 °F67%29.99 "Hg
* Reported Apr 18 8:00 PM — May 3 8:00 PM, Zittau, Weather by CustomWeather, © 2015

Note: Actual official high and low records may vary slightly from our data, if they occured in-between our weather recording intervals... More about our weather records

Advertising

Zittau weather history for previous 24 hours

 ConditionsComfort  
Time TempWeatherWind HumidityBarometerVisibility
8:00 PM
Sun, May 3
56 °FOvercast.7 mph70%29.80 "Hg9 mi
7:00 PM58 °FCool.6 mph63%29.79 "Hg12 mi
6:00 PM59 °FRefreshingly cool.6 mph58%29.79 "Hg12 mi
5:00 PM60 °FOvercast.6 mph54%29.81 "Hg22 mi
4:00 PM63 °FScattered clouds.7 mph47%29.80 "Hg25 mi
3:00 PM62 °FScattered clouds.7 mph43%29.82 "Hg25 mi
2:00 PM63 °FScattered clouds.6 mph42%29.81 "Hg25 mi
1:00 PM60 °FPassing clouds.7 mph40%29.84 "Hg25 mi
12:00 PM60 °FPassing clouds.5 mph42%29.85 "Hg25 mi
11:00 AM58 °FPassing clouds.6 mph43%29.87 "Hg22 mi
10:00 AM56 °FPassing clouds.5 mph44%29.88 "Hg22 mi
9:00 AM54 °FPassing clouds.6 mph52%29.88 "Hg22 mi
8:00 AM50 °FPassing clouds.5 mph55%29.90 "Hg22 mi
7:00 AM46 °FCool.3 mph62%29.91 "Hg12 mi
6:00 AM42 °FQuite cool.3 mph69%29.92 "Hg12 mi
5:00 AM40 °FChilly.3 mph73%29.93 "Hg12 mi
4:00 AM35 °FChilly.1 mph90%29.96 "Hg12 mi
3:00 AM36 °FChilly.1 mph87%29.96 "Hg12 mi
2:00 AM37 °FChilly.1 mph88%29.97 "Hg9 mi
1:00 AM37 °FChilly.1 mph85%29.97 "Hg10 mi
12:00 AM38 °FChilly.1 mph82%29.98 "Hg12 mi
11:00 PM
Sat, May 2
41 °FQuite cool.1 mph80%29.97 "Hg10 mi
10:00 PM40 °FPassing clouds.1 mph77%29.97 "Hg12 mi
9:00 PM41 °FPassing clouds.2 mph72%29.96 "Hg16 mi
Weather by CustomWeather, © 2015

See weather overviewHow to use our weather pages